Location: 433rd Scouts Home(Lloyd Manor Park, Etobicoke )
(43.6722°N, 79.5542°W)
Time: 07:35:36
(UTC-04:00)

Envisat - Pass Details

Date: 25 September 2021
Orbit: 764 x 766 km, 98.2° (Epoch: 20 October)

Event Time Altitude Azimuth Distance (km) Brightness Sun altitude
Rises 06:37:27 0° 12° (NNE) 3,241 6.5 -6.6°
Reaches altitude 10° 06:39:46 10° 12° (NNE) 2,310 5.7 -6.1°
Maximum altitude 06:44:52 84° 284° (WNW) 774 3.0 -5.2°
Drops below altitude 10° 06:49:56 10° 197° (SSW) 2,293 5.3 -4.3°
Sets 06:52:13 0° 197° (SSW) 3,214 6.0 -3.9°
